Simultaneous Nadir Overpasses (SNOs) Predictions

Prediction of SNOs between METOP-A and TERRA Satellite Orbit:

Table of predicted SNOs for the next 14.0 days since TLE Epoch: 7/13/2012
Index Date (METOP-A) Time (METOP-A) METOP-A Lat,Lon Date (TERRA) Time (TERRA) TERRA Lat,Lon Distance(km) Time Diff (sec)
1 07/15/2012 23:14:50 -81.30, 58.03 07/15/2012 23:15:39 -81.30, 58.06 0.86 49
2 07/16/2012 00:05:29 81.31,-134.11 07/16/2012 00:05:05 81.30,-134.15 0.83 24
3 07/18/2012 18:49:09 -81.31, 124.72 07/18/2012 18:49:52 -81.31, 124.69 0.45 43
4 07/18/2012 19:39:48 81.31, -67.44 07/18/2012 19:39:18 81.31, -67.55 1.91 30
5 07/21/2012 14:23:30 -81.30,-168.99 07/21/2012 14:24:06 -81.31,-168.82 2.86 36
6 07/21/2012 15:14:09 81.31, -1.15 07/21/2012 15:13:32 81.31, -1.09 0.96 37
7 07/24/2012 09:57:50 -81.31,-102.30 07/24/2012 09:58:20 -81.30,-102.47 2.87 30
8 07/24/2012 10:48:30 81.31, 65.15 07/24/2012 10:47:46 81.31, 65.23 1.41 44
9 07/27/2012 05:32:10 -81.31, -36.00 07/27/2012 05:32:32 -81.31, -35.88 2.18 22




NCC Satellite Simultaneous Nadir Overpasses (SNOs) Prediction Service
